Flight Track Log - Related Links

Times and Time Zones

All times are in EST time to prevent confusion due to time zone crossing. See the AAR965 flight status page for this flight to view local times or setup timezone preferences in your user account.

Time Position Orientation Groundspeed Altitude Reporting Facility
EST Latitude Longitude Course Direction KTS MPH feet Rate Location/Type
Tue 01:58:13 AM 41.9751 -87.9156 235° Southwest 80 92  Level FlightAware ADS-B
Tue 01:58:32 AM 41.9839 -87.9254 320° Northwest 151 174 600 2,615 Climbing FlightAware ADS-B
Tue 01:58:52 AM 41.9940 -87.9366 320° Northwest 139 160 1,700 2,927 Climbing FlightAware ADS-B
Tue 01:59:13 AM 42.0041 -87.9479 320° Northwest 145 167 2,600 2,400 Climbing FlightAware ADS-B
Tue 01:59:17 AM 41.9927 -87.9349 140° Southeast 141 162 2,700 1,800 Climbing FlightAware ADS-B
Tue 01:59:33 AM 42.0155 -87.9581 323° Northwest 153 176 3,200 1,846 Climbing FlightAware ADS-B
Tue 01:59:43 AM 42.0232 -87.9579 North 166 191 3,500 1,500 Climbing FlightAware ADS-B
Tue 01:59:53 AM 42.0296 -87.9526 31° Northeast 181 208 3,700 1,000 Climbing FlightAware ADS-B
Tue 02:00:13 AM 42.0436 -87.9359 42° Northeast 217 250 4,000 1,050 Climbing FlightAware ADS-B
Tue 02:00:33 AM 42.0587 -87.9163 44° Northeast 243 280 4,400 1,800 Climbing FlightAware ADS-B
Tue 02:00:53 AM 42.0770 -87.8939 42° Northeast 261 300 5,200 2,923 Climbing FlightAware ADS-B
Tue 02:01:12 AM 42.0932 -87.8712 46° Northeast 271 312 6,300 3,517 Climbing FlightAware ADS-B
Tue 02:01:22 AM 42.0991 -87.8563 62° Northeast 277 319 6,900 3,429 Climbing FlightAware ADS-B
Tue 02:01:33 AM 42.1026 -87.8395 74° East 284 327 7,500 3,484 Climbing FlightAware ADS-B
Tue 02:01:53 AM 42.1039 -87.8040 87° East 287 330 8,700 3,316 Climbing FlightAware ADS-B
Tue 02:02:11 AM 42.1043 -87.7735 89° East 289 333 9,600 2,204 Climbing FlightAware ADS-B
Tue 02:02:42 AM 42.1050 -87.7111 89° East 326 375 10,500 1,452 Climbing FlightAware ADS-B
Tue 02:03:13 AM 42.1058 -87.6437 89° East 370 426 11,100 1,770 Climbing FlightAware ADS-B
Tue 02:03:43 AM 42.1067 -87.5725 89° East 390 449 12,300 2,900 Climbing FlightAware ADS-B
Tue 02:04:13 AM 42.1078 -87.5010 89° East 402 463 14,000 3,344 Climbing FlightAware ADS-B
Tue 02:04:44 AM 42.1087 -87.4220 89° East 423 487 15,700 3,000 Climbing FlightAware ADS-B
Tue 02:05:17 AM 42.1098 -87.3334 89° East 441 507 17,200 2,609 Climbing FlightAware ADS-B
Tue 02:05:53 AM 42.1109 -87.2318 89° East 469 540 18,700 2,447 Climbing FlightAware ADS-B
Tue 02:06:33 AM 42.1122 -87.1117 89° East 494 568 20,300 2,486 Climbing FlightAware ADS-B
Tue 02:07:03 AM 42.1134 -87.0148 89° East 509 586 21,600 2,600 Climbing FlightAware ADS-B
Tue 02:07:33 AM 42.1172 -86.9216 87° East 523 602 22,900 2,500 Climbing FlightAware ADS-B
Tue 02:08:03 AM 42.1214 -86.8233 87° East 534 615 24,100 2,400 Climbing FlightAware ADS-B
Tue 02:08:33 AM 42.1253 -86.7228 87° East 544 626 25,300 2,500 Climbing FlightAware ADS-B
Tue 02:09:03 AM 42.1292 -86.6174 87° East 551 634 26,600 2,600 Climbing FlightAware ADS-B
Tue 02:09:33 AM 42.1327 -86.5138 87° East 557 641 27,900 2,229 Climbing FlightAware ADS-B
Tue 02:10:13 AM 42.1371 -86.3778 87° East 568 654 29,200 2,143 Climbing FlightAware ADS-B
Tue 02:10:43 AM 42.1405 -86.2680 88° East 571 657 30,400 2,400 Climbing FlightAware ADS-B
Tue 02:11:13 AM 42.1425 -86.1648 88° East 572 658 31,600 2,400 Climbing FlightAware ADS-B
Tue 02:11:43 AM 42.1387 -86.0548 93° East 571 657 32,800 2,300 Climbing FlightAware ADS-B
Tue 02:12:13 AM 42.1321 -85.9490 95° East 568 654 33,900 1,886 Climbing FlightAware ADS-B
Tue 02:12:53 AM 42.1328 -85.8093 90° East 556 640 35,000 943 Climbing FlightAware ADS-B
Tue 02:13:23 AM 42.1326 -85.7089 90° East 557 641 35,000  Level FlightAware ADS-B
Tue 02:13:53 AM 42.1312 -85.6052 91° East 557 641 35,000  Level FlightAware ADS-B
Tue 02:14:23 AM 42.1287 -85.4978 92° East 557 641 35,000  Level FlightAware ADS-B
Tue 02:14:53 AM 42.1259 -85.3973 92° East 558 642 35,000  Level FlightAware ADS-B
Tue 02:15:23 AM 42.1226 -85.2896 92° East 559 643 35,000  Level FlightAware ADS-B
Tue 02:15:53 AM 42.1190 -85.1858 93° East 558 642 35,000  Level FlightAware ADS-B
Tue 02:16:32 AM 42.1140 -85.0504 93° East 558 642 35,000  Level FlightAware ADS-B
Tue 02:17:31 AM 42.1065 -84.8465 93° East 558 642 35,000  Level FlightAware ADS-B
Tue 02:18:49 AM 42.0975 -84.5981 93° East 557 641 35,000  Level Cleveland Center
Tue 02:19:49 AM 42.0883 -84.3883 93° East 558 642 35,000  Level Cleveland Center
Tue 02:25:33 AM 42.0582 -83.1765 93° East 558 642 35,000  Level FlightAware ADS-B (CYYZ)
Tue 02:25:40 AM 42.0602 -83.1524 83° East 557 641 35,000  Level FlightAware ADS-B (EPLB / LUZ)
Tue 02:26:04 AM 42.0660 -83.0732 84° East 559 643 35,000  Level FlightAware ADS-B (CYYZ)
Tue 02:26:34 AM 42.0729 -82.9661 85° East 559 643 35,000  Level FlightAware ADS-B (CYYZ)
Tue 02:26:43 AM 42.0745 -82.9384 86° East 560 644 35,000  Level FlightAware ADS-B (EPLB / LUZ)
Tue 02:27:03 AM 42.0784 -82.8655 86° East 561 646 35,000  Level FlightAware ADS-B (CYYZ)
Tue 02:27:25 AM 42.0821 -82.7925 86° East 560 644 35,000  Level FlightAware ADS-B (EPLB / LUZ)
Tue 02:27:33 AM 42.0835 -82.7614 87° East 562 647 35,000  Level FlightAware ADS-B (CYYZ)
Tue 02:27:56 AM 42.0860 -82.7057 86° East 561 646 35,000  Level FlightAware ADS-B (EPLB / LUZ)
Tue 02:28:03 AM 42.0881 -82.6570 87° East 561 646 35,000  Level FlightAware ADS-B (CYYZ)
Tue 02:28:34 AM 42.0924 -82.5524 87° East 562 647 35,000  Level FlightAware ADS-B (CYYZ)
Tue 02:28:36 AM 42.0927 -82.5453 87° East 562 647 35,000  Level FlightAware ADS-B (EPLB / LUZ)
Tue 02:29:04 AM 42.0965 -82.4475 87° East 563 648 35,000  Level FlightAware ADS-B (CYYZ)
Tue 02:29:12 AM 42.0978 -82.4163 87° East 564 649 35,000  Level FlightAware ADS-B (EPLB / LUZ)
Tue 02:29:34 AM 42.1007 -82.3428 87° East 564 649 35,000  Level FlightAware ADS-B (CYYZ)
Tue 02:29:56 AM 42.1036 -82.2693 87° East 565 650 35,000  Level FlightAware ADS-B (EPLB / LUZ)
Tue 02:30:04 AM 42.1049 -82.2340 87° East 566 651 35,000  Level FlightAware ADS-B (CYYZ)
Tue 02:30:35 AM 42.1090 -82.1286 87° East 567 652 35,000  Level FlightAware ADS-B (CYYZ)
Tue 02:31:04 AM 42.1130 -82.0229 87° East 568 654 35,000  Level FlightAware ADS-B (CYYZ)
Tue 02:31:11 AM 42.1138 -82.0020 87° East 568 654 35,000  Level FlightAware ADS-B (EPLB / LUZ)
Tue 02:31:33 AM 42.1168 -81.9205 87° East 569 655 35,000  Level FlightAware ADS-B (CYYZ)
Tue 02:32:04 AM 42.1209 -81.8111 87° East 569 655 35,000  Level FlightAware ADS-B (CYYZ)
Tue 02:32:34 AM 42.1247 -81.7054 87° East 569 655 35,000  Level FlightAware ADS-B (CYYZ)
Tue 02:33:05 AM 42.1285 -81.5993 87° East 569 655 35,000  Level FlightAware ADS-B (CYYZ)
Tue 02:33:34 AM 42.1323 -81.4934 87° East 569 655 35,000  Level FlightAware ADS-B (CYYZ)
Tue 02:34:04 AM 42.1357 -81.3909 87° East 570 656 35,000  Level FlightAware ADS-B (CYYZ)
Tue 02:34:33 AM 42.1392 -81.2883 87° East 570 656 35,000  Level FlightAware ADS-B (CYYZ)
Tue 02:35:04 AM 42.1426 -81.1783 88° East 571 657 35,000  Level FlightAware ADS-B (CYYZ)
Tue 02:35:33 AM 42.1459 -81.0720 88° East 571 657 35,000  Level FlightAware ADS-B (CYYZ)
Tue 02:35:38 AM 42.1464 -81.0544 88° East 570 656 35,000  Level FlightAware ADS-B (EPLB / LUZ)
Tue 02:36:05 AM 42.1492 -80.9622 88° East 571 657 35,000  Level FlightAware ADS-B (CYYZ)
Tue 02:36:24 AM 42.1510 -80.9019 88° East 570 656 35,000  Level FlightAware ADS-B (EPLB / LUZ)
Tue 02:36:35 AM 42.1520 -80.8630 88° East 571 657 35,000  Level FlightAware ADS-B (CYYZ)
Tue 02:37:04 AM 42.1529 -80.8309 88° East 569 655 35,000  Level FlightAware ADS-B (CYYZ)
Tue 02:37:16 AM 42.1563 -80.7107 88° East 568 654 35,000  Level FlightAware ADS-B (EPLB / LUZ)
Tue 02:37:49 AM 42.1595 -80.5909 88° East 566 651 35,000  Level FlightAware ADS-B (EPLB / LUZ)
Tue 02:38:02 AM 42.1607 -80.5452 88° East 567 652 35,000  Level FlightAware ADS-B (CYYZ)
Tue 02:38:34 AM 42.1636 -80.4359 88° East 567 652 35,000  Level FlightAware ADS-B (CYYZ)
Tue 02:38:35 AM 42.1631 -80.4534 268° West 566 651 35,000  Level FlightAware ADS-B (EPLB / LUZ)
Tue 02:39:04 AM 42.1662 -80.3266 88° East 567 652 35,000  Level FlightAware ADS-B (CYYZ)
Tue 02:39:07 AM 42.1660 -80.3338 269° West 565 650 35,000  Level FlightAware ADS-B (EPLB / LUZ)
Tue 02:39:33 AM 42.1685 -80.2282 88° East 566 651 35,000  Level FlightAware ADS-B (CYYZ)
Tue 02:39:55 AM 42.1702 -80.1512 88° East 564 649 35,000  Level FlightAware ADS-B (EPLB / LUZ)
Tue 02:40:03 AM 42.1709 -80.1195 88° East 565 650 35,000  Level FlightAware ADS-B (CYYZ)
Tue 02:40:33 AM 42.1733 -80.0144 88° East 564 649 35,000  Level FlightAware ADS-B (CYYZ)
Tue 02:41:04 AM 42.1754 -79.9095 88° East 563 648 35,000  Level FlightAware ADS-B (CYYZ)
Tue 02:41:33 AM 42.1775 -79.8046 88° East 562 647 35,000  Level FlightAware ADS-B (CYYZ)
Tue 02:42:03 AM 42.1794 -79.7036 88° East 561 646 35,000  Level FlightAware ADS-B (CYYZ)
Tue 02:42:14 AM 42.1801 -79.6687 89° East 560 644 35,000  Level FlightAware ADS-B (EPLB / LUZ)
Tue 02:42:33 AM 42.1814 -79.5953 89° East 561 646 35,000  Level FlightAware ADS-B (CYYZ)
Tue 02:43:03 AM 42.1831 -79.4943 89° East 560 644 35,000  Level FlightAware ADS-B (CYYZ)
Tue 02:43:12 AM 42.1836 -79.4665 89° East 559 643 35,000  Level FlightAware ADS-B (EPLB / LUZ)
Tue 02:43:32 AM 42.1847 -79.3935 89° East 561 646 35,000  Level FlightAware ADS-B (CYYZ)
Tue 02:43:50 AM 42.1858 -79.3306 89° East 560 644 35,000  Level FlightAware ADS-B (EPLB / LUZ)
Tue 02:44:03 AM 42.1865 -79.2854 89° East 561 646 35,000  Level FlightAware ADS-B (CYYZ)
Tue 02:44:22 AM 42.1874 -79.2159 89° East 560 644 35,000  Level FlightAware ADS-B (EPLB / LUZ)
Tue 02:44:39 AM 42.1850 -79.1602 93° East 559 643 35,000  Level FlightAware ADS-B (CYYZ)
Tue 02:45:03 AM 42.1728 -79.0752 101° East 555 639 35,000  Level FlightAware ADS-B (EPLB / LUZ)
Tue 02:45:07 AM 42.1701 -79.0654 111° Southeast 556 640 35,000  Level FlightAware ADS-B (CYYZ)
Tue 02:45:44 AM 42.1383 -78.9418 109° East 556 640 35,000  Level FlightAware ADS-B (CYYZ)
Tue 02:46:12 AM 42.1188 -78.8524 106° East 556 640 35,000  Level FlightAware ADS-B (CYYZ)
Tue 02:46:41 AM 42.1106 -78.8159 107° East 556 640 35,000  Level FlightAware ADS-B (CYYZ)
Tue 02:47:13 AM 42.0736 -78.6579 107° East 556 640 35,000  Level FlightAware ADS-B (CYYZ)
Tue 02:47:45 AM 42.0453 -78.5466 109° East 557 641 35,000  Level FlightAware ADS-B (CYYZ)
Tue 02:48:14 AM 42.0209 -78.4489 109° East 556 640 35,000  Level FlightAware ADS-B (CYYZ)
Tue 02:48:44 AM 41.9972 -78.3575 109° East 557 641 35,000  Level FlightAware ADS-B (CYYZ)
Tue 02:49:14 AM 41.9709 -78.2563 109° East 557 641 35,000  Level FlightAware ADS-B (CYYZ)
Tue 02:49:44 AM 41.9481 -78.1687 109° East 557 641 35,000  Level FlightAware ADS-B (CYYZ)
Tue 02:50:12 AM 41.9208 -78.0645 109° East 556 640 35,000  Level FlightAware ADS-B (CYYZ)
Tue 02:50:45 AM 41.8933 -77.9607 110° East 556 640 35,000  Level FlightAware ADS-B (CYYZ)
Tue 02:51:12 AM 41.8699 -77.8732 110° East 556 640 35,000  Level FlightAware ADS-B (CYYZ)
Tue 02:51:43 AM 41.8450 -77.7760 109° East 556 640 35,000  Level FlightAware ADS-B (CYYZ)
Tue 02:52:14 AM 41.8226 -77.6917 110° East 556 640 35,000  Level FlightAware ADS-B (CYYZ)
Tue 02:52:43 AM 41.7989 -77.6040 110° East 557 641 35,000  Level FlightAware ADS-B (CYYZ)
Tue 02:53:18 AM 41.7653 -77.4758 110° East 549 632 35,000  Level New York Center
Tue 02:54:18 AM 41.7139 -77.2789 109° East 549 632 35,000  Level New York Center
Tue 02:55:18 AM 41.6617 -77.0850 110° East 549 632 35,000  Level New York Center
Tue 02:56:18 AM 41.6075 -76.8911 110° East 549 632 35,000 -250 Level New York Center
Tue 02:57:18 AM 41.5525 -76.6975 111° Southeast 555 639 34,500 -1,400 Descending New York Center
Tue 02:58:18 AM 41.4997 -76.5017 110° East 555 639 32,200 -2,250 Descending New York Center
Tue 02:59:18 AM 41.4536 -76.3344 110° East 555 639 30,000 -1,800 Descending New York Center
Tue 03:00:18 AM 41.4019 -76.1450 110° East 548 631 28,600 -1,300 Descending New York Center
Tue 03:01:18 AM 41.3514 -75.9667 111° Southeast 531 611 27,400 -1,550 Descending New York Center
Tue 03:02:18 AM 41.2986 -75.7914 112° Southeast 515 593 25,500 -1,700 Descending New York Center
Tue 03:03:18 AM 41.2475 -75.6222 112° Southeast 507 583 24,000 -1,250 Descending New York Center
Tue 03:04:18 AM 41.1956 -75.4583 113° Southeast 493 567 23,000 -500 Descending New York Center
Tue 03:05:18 AM 41.1414 -75.2978 114° Southeast 481 554 23,000 -489 Level New York Center
Tue 03:11:15 AM 40.9319 -74.2894 114° Southeast 460 529 19,600 -553 Descending FlightAware ADS-B (KSNC)
Tue 03:12:32 AM 40.8386 -74.1480 131° Southeast 381 438 19,000 -408 Descending FlightAware ADS-B (KSNC)
Tue 03:13:42 AM 40.7353 -74.0535 145° Southeast 382 440 18,600 -1,493 Descending FlightAware ADS-B (KSNC)
Tue 03:16:05 AM 40.5352 -73.8702 145° Southeast 359 413 13,700 -2,011 Descending FlightAware ADS-B (KSNC)
Tue 03:16:41 AM 40.5000 -73.8333 145° Southeast 355 409 12,600 -2,000 Descending New York TRACON
Tue 03:17:41 AM 40.4167 -73.7667 149° Southeast 331 381 10,500 -1,950 Descending New York TRACON
Tue 03:18:41 AM 40.3833 -73.6667 114° Southeast 335 386 8,700 -1,600 Descending New York TRACON
Tue 03:19:41 AM 40.4167 -73.5833 62° Northeast 265 305 7,300 -1,500 Descending New York TRACON
Tue 03:20:41 AM 40.4667 -73.5333 37° Northeast 218 251 5,700 -1,400 Descending New York TRACON
Tue 03:21:41 AM 40.5000 -73.5500 339° North 158 182 4,500 -1,250 Descending New York TRACON
Tue 03:22:41 AM 40.5500 -73.5833 333° Northwest 156 180 3,200 -1,000 Descending New York TRACON
Tue 03:23:41 AM 40.5833 -73.6167 323° Northwest 150 173 2,500 -595 Descending New York TRACON
Tue 03:24:42 AM 40.6000 -73.6667 294° West 142 163 2,000 -645 Descending New York TRACON
Tue 03:25:42 AM 40.6167 -73.7000 303° West 135 155 1,200 -800 Descending New York TRACON
Tue 03:26:42 AM 40.6333 -73.7500 294° West 133 153 400 -800 Descending New York TRACON

Login

Don't have an account? Register now (free) for customized features, flight alerts, and more!